RH
41 34 31 35 39 38 41 46 49 48 44 50 60 58 58 62 53 50 62 69 73 81 83 79 76 74 74 74 71 69 70 71 68 67 69 70 70 70 70 70 71 73 75 75 77 82 85 86 89 95 99 97 94 96 95 93 94 90 83 81 77 72 73 73 70 69 68 65 66 67 65 63 62 62 60 55 51 50 49 46 42 41 40 39 41 45 44
60 49 31 32 38 37 40 41 42 48 49 50 56 59 58 60 59 61 68 75 80 82 79 79 77 74 72 70 68 69 71 72 72 71 72 73 73 73 73 74 74 73 74 76 78 82 87 89 90 93 98 100 98 97 96 94 95 95 87 79 76 76 77 78 77 75 74 73 70 68 67 67 68 67 61 54 50 48 47 46 44 43 41 39 40 41 41
69 61 38 34 39 41 45 49 48 51 54 55 59 63 63 65 68 68 67 74 81 76 72 75 74 71 71 70 71 74 74 73 74 74 74 74 74 74 75 75 75 74 74 76 81 85 89 91 94 96 97 97 97 98 99 98 96 94 87 79 78 79 79 81 80 78 78 78 76 74 75 76 76 72 64 59 58 56 52 51 49 48 44 42 42 43 48
60 60 47 40 40 42 52 64 66 63 63 64 66 70 73 74 79 76 71 75 80 74 71 74 73 71 74 75 76 77 75 72 74 75 75 76 76 75 75 76 77 77 77 79 82 85 88 91 94 98 98 96 96 98 98 96 92 89 85 82 81 81 80 80 80 80 81 80 79 79 77 74 70 67 65 68 72 72 69 63 57 54 53 52 54 60 64
53 60 62 53 48 55 70 79 76 70 69 68 69 75 77 76 81 84 80 79 76 71 74 78 77 77 81 82 80 80 79 75 74 75 75 76 76 76 76 76 77 79 81 82 83 85 88 92 94 97 98 96 96 99 99 95 91 88 86 84 83 83 83 82 81 80 79 78 78 76 72 67 64 66 72 76 75 76 78 75 71 68 66 65 66 69 66
58 63 73 67 59 69 80 76 67 66 72 73 75 79 78 76 80 81 77 73 70 71 76 79 80 82 83 83 80 78 78 77 76 77 76 75 76 77 77 77 78 81 85 86 86 86 89 92 93 95 98 94 92 96 100 99 95 92 90 87 85 85 85 85 85 83 80 79 79 76 73 70 70 73 77 75 72 70 71 75 79 78 74 72 70 68 63
57 61 72 74 74 79 78 67 59 60 67 69 72 79 80 77 79 79 73 72 72 73 75 77 80 81 81 82 80 76 74 74 75 76 76 76 77 77 78 79 80 83 86 88 89 90 91 92 91 93 95 92 88 91 98 101 98 96 94 92 91 89 87 84 84 83 82 81 80 78 75 73 73 75 75 74 74 72 69 72 77 78 76 73 69 67 64
52 58 64 73 81 79 73 68 63 63 68 69 72 84 88 83 83 85 80 75 74 73 75 80 82 80 78 79 80 77 72 69 69 71 71 72 75 76 78 79 81 82 83 85 88 91 93 95 94 92 93 93 90 90 93 98 98 96 94 93 93 92 91 87 85 83 80 80 80 78 77 75 73 73 73 72 72 71 71 71 73 74 75 74 72 69 66
51 54 60 74 82 81 80 78 73 72 78 78 79 88 90 80 78 84 83 77 76 76 79 81 79 76 77 79 82 83 76 67 63 65 66 67 69 71 74 76 78 80 81 83 86 87 89 93 93 90 89 91 92 91 91 93 94 93 93 95 95 94 93 91 90 86 81 79 79 78 77 76 74 72 71 69 67 68 69 68 68 70 71 71 73 73 72
49 52 64 76 81 86 89 82 72 70 74 76 78 84 86 77 72 76 81 84 84 84 83 82 80 80 82 84 88 91 84 70 62 61 64 66 68 69 71 73 74 74 77 80 83 85 88 90 88 84 84 86 88 89 91 92 91 91 92 94 95 96 96 94 92 89 84 81 80 79 78 79 79 76 73 70 67 66 66 64 64 65 66 67 70 71 72
48 57 67 73 83 92 90 80 71 68 68 71 77 85 89 82 72 70 76 83 87 89 89 88 89 90 85 85 92 95 86 73 65 63 63 64 66 66 66 66 65 66 68 71 73 78 84 87 84 80 80 83 85 86 88 89 90 92 94 94 93 93 92 90 89 88 86 84 81 79 77 76 74 73 74 72 68 66 67 67 64 61 60 63 62 57 51
49 61 62 66 84 93 85 76 72 68 67 73 84 94 93 84 75 73 77 81 83 87 89 90 93 94 90 90 96 95 85 74 67 66 65 64 63 63 62 59 57 56 57 60 62 67 73 80 82 79 76 78 82 84 83 85 87 88 89 90 90 89 86 84 84 83 83 84 84 82 80 76 72 73 75 73 68 66 68 71 70 66 66 66 62 58 53
50 57 60 68 84 87 80 76 71 69 74 81 90 98 92 82 80 80 81 84 84 85 90 92 93 96 98 98 96 89 84 77 69 63 63 63 61 62 63 62 59 55 54 54 56 59 62 66 72 74 73 75 80 81 79 81 84 83 82 82 83 83 82 80 78 78 78 80 83 83 80 78 77 76 77 76 73 72 73 74 72 69 70 73 70 63 60
57 51 59 76 86 84 78 73 65 66 80 86 87 89 86 84 86 85 83 87 86 86 92 95 95 98 101 99 92 84 83 81 69 58 57 58 57 57 58 60 60 58 57 55 54 54 55 57 61 66 68 70 74 75 73 73 76 77 77 77 77 78 78 76 75 76 76 77 79 81 81 80 80 77 74 72 72 72 73 72 70 68 69 74 74 64 54
65 55 65 80 86 81 75 71 68 71 83 87 83 83 83 84 86 86 87 89 86 88 95 98 97 99 99 95 88 81 79 74 62 54 54 55 54 54 55 57 59 59 59 57 54 53 53 54 58 62 63 64 65 66 66 67 69 69 70 71 72 73 74 73 73 74 74 74 74 76 77 77 77 76 73 69 65 65 66 65 64 64 62 64 67 65 62
67 70 84 90 91 85 75 76 83 84 84 80 78 83 86 84 84 87 93 95 91 91 96 96 95 94 92 88 84 82 80 71 58 53 54 54 55 56 56 58 59 59 59 58 57 56 55 56 57 58 59 60 60 61 63 65 65 64 65 66 67 67 68 68 68 68 69 70 70 70 69 68 68 69 69 65 61 61 60 57 56 55 53 52 55 55 55
69 76 86 85 84 80 74 77 84 82 78 75 75 80 82 82 84 88 92 95 92 90 91 92 93 92 89 85 82 82 83 74 61 55 54 53 55 58 58 59 59 57 58 58 57 55 55 55 56 56 56 57 56 55 56 57 57 58 60 61 62 63 63 63 62 62 63 65 67 66 64 62 61 63 62 59 56 55 55 55 54 52 49 48 50 50 50
67 74 74 65 65 68 69 74 77 74 74 73 71 75 80 84 86 86 87 89 89 87 87 90 92 91 87 85 82 81 81 77 69 63 58 55 54 55 56 58 56 54 56 57 55 54 53 52 52 53 53 54 54 52 51 51 52 53 55 56 57 57 57 57 56 58 59 61 63 64 62 59 59 59 59 57 55 55 54 53 52 52 50 48 48 50 51
67 78 69 51 50 54 53 56 59 60 63 64 64 70 76 79 79 79 80 83 84 84 85 87 89 88 84 84 84 79 74 71 65 60 57 56 56 55 55 54 52 51 51 51 51 53 53 51 50 49 49 50 50 50 50 49 50 52 53 53 52 52 52 52 51 54 57 57 58 59 58 57 57 58 58 57 56 56 57 58 56 52 50 48 47 49 50
65 71 59 43 42 43 38 39 43 46 50 54 57 62 66 68 70 71 73 75 77 79 81 82 84 83 80 78 74 66 59 56 52 50 51 52 53 55 56 55 53 51 50 49 49 51 51 50 50 49 49 48 46 47 48 48 50 52 53 53 52 50 50 50 49 49 51 53 54 55 56 56 56 57 58 59 61 61 60 60 61 61 59 56 54 52 51
57 55 46 41 44 43 38 37 39 39 41 44 47 50 54 58 61 63 65 67 68 70 72 74 76 76 73 68 62 56 52 51 50 49 49 49 50 52 54 55 54 54 54 53 51 51 50 49 49 49 48 47 46 46 47 47 49 51 51 51 51 50 49 50 50 50 49 50 51 53 55 58 58 57 56 57 62 64 59 54 55 62 66 66 65 63 61
53 49 43 42 46 49 47 42 39 39 39 38 40 42 43 46 50 52 55 58 58 58 59 59 60 63 64 61 57 53 52 51 51 50 49 49 49 49 51 52 51 51 52 52 51 51 49 46 46 47 47 47 47 47 45 46 49 50 47 46 46 48 50 52 54 52 50 50 51 51 52 55 60 62 59 55 55 59 58 55 54 57 62 65 66 67 69
49 45 39 38 42 47 46 40 37 36 34 35 39 40 39 42 43 44 46 49 49 50 50 48 48 50 52 50 47 44 44 45 46 47 47 47 46 46 48 50 50 50 50 49 48 48 47 44 44 46 47 48 49 48 46 47 49 48 45 43 43 44 48 52 54 52 49 50 51 51 50 51 52 58 63 62 58 55 55 58 60 61 63 65 66 66 68
42 37 34 35 39 42 41 36 33 31 29 30 34 35 37 39 40 40 43 45 45 47 48 47 45 43 42 42 40 37 37 38 38 39 40 40 40 40 41 43 46 47 46 45 43 42 40 40 41 43 43 45 49 50 47 46 48 49 47 45 45 44 44 47 50 47 46 48 48 47 48 48 45 46 53 61 63 60 56 56 59 61 62 64 64 64 64
38 35 32 34 35 36 35 33 32 31 29 27 28 29 31 34 35 35 37 39 41 44 45 46 45 43 42 41 39 36 35 35 34 35 36 36 36 35 35 38 40 39 37 36 36 35 35 36 38 39 39 41 47 51 50 47 49 51 50 50 52 50 46 47 48 43 40 43 44 43 44 45 44 42 42 48 56 61 61 60 59 59 60 61 62 63 62
34 33 32 33 33 32 32 31 31 31 29 27 27 27 28 31 34 31 29 31 34 36 38 40 39 39 39 39 38 36 36 36 35 35 34 34 34 34 35 36 35 34 34 34 34 36 38 38 36 35 34 38 47 53 52 50 51 54 53 53 54 51 47 48 47 42 38 40 42 42 43 42 41 42 41 41 46 53 60 65 67 66 67 64 61 62 62
31 31 32 35 36 34 32 31 29 29 27 26 26 25 25 28 30 27 25 27 28 29 32 34 34 34 35 35 35 35 35 35 36 35 33 33 33 33 34 35 34 34 35 34 33 37 41 40 36 33 32 39 49 55 53 52 55 57 55 54 54 54 54 54 50 42 40 42 41 41 44 43 42 43 43 43 42 42 47 53 56 61 69 72 65 62 63
29 27 28 33 33 30 28 27 26 26 25 25 24 24 24 26 26 25 26 26 26 27 28 30 30 31 33 34 34 33 33 33 33 33 32 33 34 33 33 34 34 33 35 34 32 33 35 35 36 34 33 37 47 54 54 54 56 58 56 53 52 53 54 55 49 41 41 45 44 44 47 48 46 45 44 42 42 41 43 45 42 42 53 63 64 63 63
25 23 24 26 26 26 26 26 26 25 25 25 24 24 24 25 24 25 26 26 26 27 27 28 29 30 31 33 32 31 30 31 31 30 30 32 34 34 32 33 34 34 34 33 31 30 31 33 34 34 32 34 42 51 55 55 56 60 59 55 53 52 51 49 47 44 45 47 47 49 53 53 50 48 45 42 42 42 42 45 45 42 44 51 57 59 58
24 23 24 24 25 26 27 27 27 27 25 25 25 24 24 24 24 25 26 25 26 26 26 27 28 28 29 31 31 29 29 30 29 29 29 32 36 38 37 35 34 31 31 30 30 31 33 34 35 35 33 32 37 47 55 56 57 61 61 57 56 57 52 47 46 48 47 45 45 51 57 56 52 49 46 42 43 43 41 42 46 48 49 51 52 52 54
26 27 27 26 25 25 26 26 26 26 24 24 25 25 25 25 26 27 27 26 25 25 25 26 28 29 31 31 30 29 29 30 31 32 33 37 42 42 39 36 33 32 35 38 38 39 39 38 37 37 36 34 35 42 52 57 58 60 62 61 61 61 55 46 43 46 45 43 43 48 51 50 50 52 50 44 43 43 42 44 49 53 55 54 52 53 60
28 29 28 27 24 23 24 24 24 25 25 25 26 26 26 26 27 28 28 27 27 26 26 27 29 31 32 32 32 32 32 34 35 35 35 39 41 37 35 37 38 41 45 46 45 46 47 45 42 41 39 38 35 37 47 56 58 58 60 60 60 62 58 50 44 43 44 45 45 47 46 44 46 52 52 48 46 44 44 48 54 57 58 57 57 63 70
27 28 28 26 25 25 26 26 25 25 26 26 26 26 25 26 27 27 29 30 30 28 29 29 30 31 33 35 36 37 37 35 34 34 36 39 37 33 37 43 46 46 48 48 49 51 53 53 51 48 45 42 37 35 44 54 57 58 61 60 57 56 57 54 48 44 44 46 48 50 48 45 46 51 54 53 52 50 49 52 57 59 59 60 64 73 78
28 29 28 27 27 28 28 27 25 25 25 25 25 25 24 26 28 30 31 31 31 31 31 31 32 35 38 39 39 38 35 33 33 36 41 41 33 32 40 47 48 48 48 49 51 54 55 57 58 56 51 46 38 35 43 52 56 58 60 61 59 56 54 52 48 43 41 44 47 49 50 49 48 53 56 56 55 55 56 58 60 60 59 60 64 71 78
27 27 26 25 25 26 26 25 25 25 25 25 25 24 24 27 31 34 34 34 33 33 32 32 36 40 40 39 38 37 36 35 34 38 42 39 31 32 39 41 39 41 45 47 50 51 51 55 58 58 56 50 40 38 45 54 58 59 60 60 61 58 51 46 41 38 41 45 45 45 51 55 54 55 57 56 56 59 62 63 62 61 60 59 60 65 72
25 25 25 24 24 25 26 26 26 25 25 25 25 24 25 29 33 35 35 34 34 34 33 33 38 41 38 36 37 37 36 36 36 38 42 37 30 31 36 36 34 36 41 45 50 52 52 54 57 58 59 55 45 42 49 56 59 62 62 61 62 59 52 45 40 37 41 45 43 44 54 60 58 58 59 58 58 62 65 65 63 60 60 61 62 64 68
26 25 26 25 25 26 27 26 25 25 25 25 25 25 26 30 33 35 35 34 34 35 35 35 38 39 37 35 35 35 35 36 38 40 42 37 30 30 35 36 35 34 35 41 49 54 54 56 58 58 59 55 47 46 53 59 62 64 64 62 61 58 52 45 39 37 39 40 42 49 58 61 59 61 62 60 60 64 67 66 63 60 61 65 67 67 69
28 28 29 29 28 28 28 27 27 27 26 25 26 27 30 33 35 36 36 35 35 36 37 36 36 38 38 38 37 36 35 36 37 40 41 37 33 34 36 34 30 28 31 41 52 56 56 57 60 60 57 53 48 51 57 61 62 62 62 61 61 59 52 44 39 37 36 37 42 52 60 63 63 64 64 63 64 66 66 65 62 59 62 67 69 69 71
28 28 30 29 28 28 28 27 27 27 26 26 28 30 32 35 37 38 38 37 36 36 37 36 35 37 39 40 40 39 38 37 36 37 38 37 36 38 38 34 28 29 35 43 51 56 58 58 59 60 59 54 52 58 64 64 62 61 59 59 60 59 52 44 41 37 35 37 44 52 56 61 66 66 64 63 64 65 66 66 64 61 62 67 68 69 71
27 28 29 29 28 28 27 27 28 28 28 28 31 33 35 37 38 39 39 38 37 37 38 38 37 37 37 38 38 38 39 40 38 37 37 37 37 37 35 29 26 31 38 42 48 57 62 60 58 62 66 64 60 63 67 66 62 59 57 57 57 56 51 46 42 38 35 39 47 52 53 59 66 66 63 61 62 64 66 66 64 61 62 66 67 68 69
29 29 30 30 29 28 28 28 30 30 31 32 34 37 40 40 40 41 40 39 39 39 39 39 39 38 37 37 38 38 39 41 41 41 41 39 36 34 29 23 22 30 37 37 41 52 61 62 59 61 63 63 62 62 62 61 59 56 53 50 49 50 49 47 43 38 34 36 42 47 53 59 64 63 60 59 62 66 67 67 64 63 63 64 66 67 68
30 32 32 31 30 29 29 30 31 33 34 36 37 40 42 42 42 42 41 40 41 42 41 40 41 41 39 39 39 39 40 40 40 41 42 39 36 33 28 21 22 30 33 31 35 45 54 61 64 62 57 56 59 58 52 50 51 51 46 40 39 42 46 47 44 39 35 34 36 42 51 59 63 64 62 61 63 67 69 68 65 63 63 63 64 65 65
33 34 33 31 31 30 30 32 33 33 35 37 39 41 43 44 44 43 41 40 41 41 41 41 42 42 42 42 41 41 42 41 40 40 40 38 37 36 31 25 27 33 31 28 31 36 39 44 53 55 51 51 55 55 49 44 44 42 37 33 34 39 44 46 45 41 37 34 34 38 45 54 62 65 63 61 63 66 68 68 66 63 62 63 63 63 64
36 36 33 32 34 34 33 33 33 34 37 41 42 43 44 44 44 43 42 41 41 41 41 42 41 40 41 43 42 41 40 39 37 37 37 34 33 35 34 30 29 29 27 24 25 28 28 30 38 44 46 45 47 49 50 46 42 36 32 31 34 38 42 45 46 44 39 35 34 36 38 45 55 62 62 61 64 67 67 67 65 63 62 63 64 64 65
35 35 35 37 38 37 33 31 32 36 40 42 41 41 41 42 42 43 43 42 42 42 42 42 42 42 42 42 42 42 41 39 36 35 34 32 30 32 33 30 26 26 28 27 23 23 26 30 32 35 38 40 42 45 47 45 38 33 31 30 32 36 40 43 46 45 41 38 37 37 35 37 45 54 58 61 63 65 66 66 65 63 62 62 63 64 63
34 34 35 37 36 34 32 33 37 41 44 43 40 39 40 41 43 44 44 43 43 44 44 43 43 44 44 43 42 42 42 40 38 36 35 33 31 30 31 29 24 24 28 29 25 26 34 39 35 30 30 33 37 43 46 43 38 34 31 29 31 35 38 41 44 46 44 40 38 38 38 38 39 44 51 58 62 64 66 66 64 62 61 60 59 59 58
34 33 32 31 32 32 33 37 40 41 42 41 37 36 39 43 46 46 44 43 44 45 45 44 44 44 44 44 44 42 39 38 37 36 35 35 33 32 33 32 25 20 22 25 26 29 36 38 32 26 24 26 34 43 46 41 37 35 33 31 31 34 36 39 44 47 46 43 41 42 45 44 41 40 46 54 59 62 64 65 64 61 60 57 55 55 54
33 33 32 33 35 35 36 37 38 36 34 32 31 34 39 44 46 46 45 46 46 46 45 45 44 43 43 44 44 41 40 40 38 36 35 36 34 32 33 32 26 18 17 21 27 32 32 27 20 19 22 27 36 43 44 39 36 36 35 32 32 33 35 39 45 48 47 45 44 45 46 44 42 41 45 50 55 59 62 64 62 59 58 58 57 56 54
33 34 34 34 33 32 32 34 33 31 28 28 31 36 42 45 45 45 45 45 44 44 44 43 42 42 42 43 42 40 40 41 40 38 37 37 36 34 33 31 26 20 20 26 33 37 32 20 12 15 26 37 43 43 40 37 37 37 36 34 33 34 37 43 49 52 50 46 45 45 45 43 42 42 44 46 49 54 59 60 59 58 58 59 58 58 57
33 32 31 30 29 30 33 36 35 33 33 36 40 44 46 46 45 44 43 42 42 42 42 41 41 42 42 41 40 39 39 41 42 41 40 39 39 39 38 34 27 23 25 29 32 31 27 21 14 14 23 35 40 39 36 36 37 37 37 38 39 41 47 54 58 59 56 51 45 42 42 42 43 44 45 46 46 49 53 56 59 61 62 60 57 57 58
33 31 30 29 29 31 36 39 39 40 42 44 46 46 45 45 44 44 43 44 44 42 40 41 45 46 44 42 44 44 42 40 41 41 40 39 39 39 39 37 30 25 26 29 29 28 30 33 30 22 21 27 32 32 31 31 32 34 39 45 46 46 50 56 57 57 57 57 52 47 45 45 44 43 46 49 50 50 51 54 57 61 62 60 58 57 56
34 34 32 31 31 33 36 39 41 42 43 43 43 43 42 43 43 44 46 46 44 41 40 44 49 51 49 51 55 52 43 37 37 37 37 37 37 37 36 35 32 28 27 30 30 28 29 32 31 25 24 28 31 29 27 27 29 34 43 49 49 45 45 47 47 46 50 55 57 54 51 51 50 48 48 52 54 53 53 53 54 56 59 60 59 58 57
Wind_Speed
10 7 3 6 6 5 3 4 5 7 7 6 5 4 5 5 5 2 3 3 6 7 6 7 7 6 6 7 8 9 9 10 11 11 12 13 13 12 13 13 13 13 13 12 13 16 17 17 18 17 10 5 10 14 15 13 14 18 21 24 24 21 19 19 19 19 19 19 19 18 18 18 18 16 15 13 12 11 10 9 8 7 6 6 6 6 6
10 10 6 5 6 5 3 3 3 6 6 5 6 5 7 7 5 2 3 5 6 6 4 5 6 6 6 6 7 9 10 11 11 12 12 13 13 12 13 13 13 13 13 14 15 17 18 19 18 17 16 13 9 11 18 21 20 18 18 21 22 20 19 19 20 20 19 19 20 20 19 19 18 16 15 14 13 12 11 10 9 7 7 7 6 7 8
7 9 7 5 6 6 3 2 6 8 7 6 6 7 8 6 6 5 1 4 5 4 4 5 6 5 6 7 9 10 11 11 11 12 12 12 12 12 12 12 12 13 13 14 17 18 18 19 19 18 18 18 16 8 7 17 16 15 16 18 19 20 20 19 20 20 20 20 20 21 21 20 19 18 18 17 15 12 11 11 10 7 7 7 6 7 8
5 6 7 6 4 5 3 6 9 8 7 6 5 7 9 8 7 8 5 2 4 4 4 5 6 7 8 9 10 10 10 11 12 12 13 12 12 12 12 12 12 12 13 14 16 18 18 19 19 19 18 18 20 16 5 15 16 15 17 17 16 17 17 18 20 20 20 21 22 23 23 23 22 21 19 17 15 13 11 11 11 8 6 7 7 9 11
3 2 4 3 4 4 2 5 8 7 6 6 5 8 11 10 9 7 4 4 4 4 5 5 6 8 9 10 10 9 9 11 12 12 13 12 12 12 12 13 13 12 13 15 17 18 19 19 20 19 17 19 22 20 7 15 22 20 20 20 18 16 14 15 17 19 21 22 23 25 26 25 23 20 16 15 15 13 11 12 12 11 9 9 10 10 11
2 2 5 5 5 3 1 5 6 6 5 7 5 7 11 11 8 7 4 6 6 5 6 6 7 9 9 10 11 10 9 10 10 12 13 12 12 12 12 13 13 13 15 16 17 18 18 19 20 20 19 21 22 21 15 15 22 21 21 22 20 19 18 17 17 21 24 25 24 23 23 22 20 18 16 15 14 12 11 12 14 14 12 12 11 10 10
1 3 0 5 3 2 3 5 7 6 5 6 4 5 11 12 10 9 7 8 8 7 8 8 8 9 10 11 12 12 12 10 10 11 12 12 12 12 13 13 13 15 17 17 18 19 18 19 21 22 22 24 24 23 21 20 23 24 24 24 23 22 22 22 20 22 25 28 26 24 22 21 19 17 16 16 15 14 13 13 13 13 13 13 12 11 10
1 2 3 2 2 4 4 4 9 8 5 6 4 4 10 13 9 7 7 7 8 8 7 8 7 8 8 9 12 14 13 11 11 11 11 12 12 12 13 14 15 18 19 18 19 20 20 20 22 23 25 25 25 26 26 26 27 27 28 28 26 24 23 23 21 22 24 27 26 24 22 20 18 18 17 16 16 16 16 15 13 13 13 12 12 11 10
3 4 1 4 5 4 4 4 7 7 5 5 4 1 7 11 9 7 5 4 6 6 6 6 6 6 6 7 9 13 13 11 11 12 13 13 14 15 16 16 18 19 19 19 20 21 22 24 25 26 27 25 24 26 27 28 29 30 30 29 27 25 24 22 21 22 23 24 24 23 22 20 19 18 16 15 15 15 16 16 14 12 12 13 13 12 10
3 3 1 4 5 3 5 6 6 5 3 3 3 2 2 9 10 8 4 4 5 5 4 3 1 3 1 4 6 10 12 10 9 11 14 15 16 16 16 16 18 18 18 18 19 21 24 26 27 28 27 25 25 26 26 27 29 31 30 28 25 24 23 22 22 22 22 23 24 23 22 20 19 17 16 16 15 14 14 14 13 11 12 13 13 12 11
4 4 2 1 1 3 6 8 7 7 4 1 2 3 1 7 10 8 6 4 5 5 3 4 5 3 1 4 5 8 9 9 9 10 13 15 16 16 16 16 16 17 17 18 20 22 23 24 25 26 25 24 25 25 25 25 27 28 26 24 23 23 22 22 23 23 23 22 23 23 22 20 19 18 17 16 15 14 13 12 12 11 11 12 12 11 10
3 2 1 2 4 4 8 9 7 7 4 1 3 2 2 7 9 7 7 4 4 5 4 5 5 4 3 4 4 8 8 9 11 11 12 14 15 15 16 16 16 16 17 18 19 20 20 19 21 22 24 26 25 22 23 24 25 24 22 20 21 21 21 22 23 23 23 22 21 21 19 18 17 16 14 13 13 13 11 10 9 9 9 9 9 8 6
1 2 3 5 4 4 9 11 7 5 1 3 0 2 4 7 7 7 8 6 6 7 6 5 5 5 5 4 4 6 8 9 11 13 14 14 15 16 16 16 16 16 18 18 18 17 16 17 18 18 21 25 23 20 20 22 21 19 18 18 19 20 21 21 22 22 21 20 19 18 16 16 15 13 11 10 10 9 8 7 6 5 5 6 6 5 3
1 3 5 5 4 5 12 13 7 4 2 1 2 4 4 6 7 7 8 8 8 9 10 8 6 5 5 5 5 6 7 7 10 13 15 15 15 15 16 17 17 17 17 17 18 17 16 16 17 16 18 20 19 17 18 18 16 14 15 15 16 18 19 20 20 20 19 18 17 15 12 13 14 12 10 9 9 8 7 6 6 5 5 5 5 4 5
1 4 6 4 3 5 13 11 5 5 5 2 3 4 5 7 7 7 8 8 9 10 11 10 8 6 5 5 6 7 6 6 11 14 14 15 15 16 16 17 17 17 17 17 18 17 16 16 16 16 17 17 16 16 16 15 13 13 13 13 13 14 15 16 17 17 17 17 15 12 11 11 11 11 9 9 8 7 6 5 5 5 4 4 4 3 3
3 5 5 3 1 4 10 7 4 6 6 4 4 4 5 7 6 7 8 9 9 10 10 10 9 8 7 7 8 7 6 8 12 14 14 15 15 15 16 16 16 16 16 16 16 16 16 16 16 16 15 15 14 14 12 10 10 11 11 11 12 13 13 13 13 13 14 14 12 10 10 9 9 9 8 7 7 6 5 4 4 4 4 3 3 3 3
7 6 4 3 2 3 7 8 7 8 9 8 7 7 7 7 7 8 8 9 11 10 10 10 10 9 9 9 10 9 7 8 10 12 13 13 13 13 13 13 13 15 15 15 15 15 15 15 15 14 14 14 13 12 10 9 9 10 10 10 11 11 11 11 11 11 11 11 10 9 9 8 8 8 7 7 7 6 5 5 4 4 4 3 3 3 3
11 9 6 7 9 10 11 10 10 11 11 9 9 10 9 8 9 9 9 11 11 9 10 11 10 10 10 10 10 9 8 8 10 11 12 12 13 12 12 11 11 12 13 13 14 14 14 14 14 13 13 13 13 12 10 10 10 9 9 10 10 10 10 10 10 10 9 9 9 8 8 8 8 8 8 8 7 6 6 5 4 4 4 3 3 3 2
7 6 7 10 12 12 13 13 12 13 13 12 11 10 10 10 11 10 11 12 11 10 10 11 11 10 9 9 8 6 6 7 9 11 11 12 13 13 12 11 11 11 11 11 12 12 12 13 13 12 12 12 12 11 10 10 10 10 10 10 10 10 10 10 10 10 9 8 8 8 8 8 8 8 8 8 8 8 8 6 4 4 3 3 3 3 2
8 8 10 11 12 12 12 11 11 11 12 13 12 11 11 12 12 13 13 12 11 10 10 10 10 10 9 8 7 6 6 8 9 10 11 11 11 11 13 13 13 12 11 11 11 11 11 11 11 11 11 11 11 10 10 10 10 10 10 10 10 10 10 10 9 9 9 8 8 8 8 9 10 10 9 8 9 10 10 9 7 6 5 5 5 5 4
10 11 11 11 11 12 12 12 11 10 10 11 12 12 12 12 11 12 12 12 11 11 10 10 10 9 9 8 7 7 7 8 9 9 9 10 10 9 10 10 11 11 10 10 11 11 11 11 11 10 9 9 9 10 9 9 9 9 9 9 10 11 10 10 9 9 9 9 8 7 7 8 10 11 10 10 9 9 9 8 6 6 7 7 7 7 6
8 8 8 8 8 8 9 10 11 10 10 10 10 10 11 11 11 10 10 11 12 11 11 11 10 9 8 8 8 7 7 7 8 8 8 8 8 8 7 7 7 8 8 8 9 9 10 10 11 10 9 8 8 8 8 8 8 8 8 7 8 10 11 11 10 9 8 8 8 7 6 5 6 8 9 10 11 10 9 8 6 5 5 6 6 6 6
8 8 8 7 7 8 8 8 9 9 8 9 9 9 9 9 9 9 9 9 9 8 9 9 9 8 8 7 7 7 7 6 6 5 4 5 6 6 6 6 6 7 7 7 7 8 9 9 10 10 9 8 7 7 8 8 7 7 7 6 7 8 9 9 10 9 8 8 8 7 6 5 3 4 7 8 11 13 12 11 10 9 8 8 7 6 6
9 9 9 9 8 9 8 8 8 8 7 8 8 8 8 7 8 8 7 6 6 6 6 6 6 6 6 5 5 5 5 5 6 5 4 5 5 5 5 5 5 5 6 7 7 8 8 8 10 10 9 8 6 6 6 6 6 6 6 6 6 7 6 6 6 6 6 7 7 7 6 6 5 2 3 7 9 11 11 10 10 10 11 10 9 8 8
9 9 9 9 9 9 8 8 8 8 8 9 8 7 7 7 6 6 6 5 5 5 4 4 4 3 3 3 3 3 3 5 6 5 3 3 4 5 6 6 6 6 6 7 8 8 8 9 11 10 9 8 6 6 5 5 5 6 6 5 6 7 8 8 5 4 5 6 6 6 6 5 5 5 3 3 5 6 6 6 7 8 9 10 9 10 11
10 10 9 9 8 7 6 6 6 7 8 8 7 8 9 7 4 4 6 5 4 4 3 3 3 2 2 2 2 3 5 5 4 4 4 4 4 6 7 7 7 8 8 9 9 7 7 9 10 10 9 8 7 6 5 5 5 5 5 5 5 6 8 9 7 4 5 6 6 6 6 5 4 4 5 5 3 2 5 5 4 3 4 5 7 9 10
9 8 8 8 7 6 5 5 6 6 7 7 7 8 9 5 3 4 6 6 4 4 3 2 2 1 1 1 2 3 3 3 1 3 5 6 6 6 7 7 9 9 9 10 10 7 5 7 10 10 8 8 6 6 5 4 4 5 5 5 4 4 5 8 7 5 5 6 6 6 5 5 5 4 4 4 3 3 2 1 3 5 7 6 5 8 8
6 6 6 6 6 6 6 7 6 6 6 6 6 6 6 5 4 4 5 4 3 3 2 2 1 1 0 1 1 0 1 1 3 4 5 5 5 6 7 8 10 10 10 11 12 10 9 9 10 10 8 6 5 6 6 4 4 4 4 4 4 4 4 5 6 6 6 5 7 8 6 4 4 4 3 3 3 3 3 3 4 2 4 6 3 4 6
6 6 6 7 7 7 7 6 6 5 5 4 4 3 3 2 2 2 2 2 2 1 1 1 1 2 1 1 3 3 2 3 5 5 5 5 5 6 8 9 10 11 12 12 12 12 11 11 10 10 10 7 5 5 6 6 5 4 4 4 4 4 5 5 6 7 6 4 5 7 5 3 3 3 2 3 3 3 2 2 4 6 3 2 1 0 2
6 6 6 7 6 6 6 5 4 4 3 2 1 1 1 1 1 1 1 1 1 2 2 1 2 2 2 2 3 3 4 5 5 6 6 5 5 6 8 10 12 12 12 12 13 12 12 11 11 11 10 8 5 5 6 7 6 5 5 4 2 3 6 7 8 8 7 4 3 2 3 4 3 3 3 3 2 3 3 1 1 3 3 3 3 3 3
6 5 5 5 5 5 4 3 2 2 2 0 1 1 1 2 2 2 2 3 4 4 3 3 3 3 3 3 4 4 3 3 4 6 6 5 5 7 9 10 12 12 11 12 13 13 12 12 12 11 11 9 7 6 7 8 7 6 6 4 3 1 3 5 5 7 6 5 3 4 5 3 2 2 3 3 3 3 3 1 1 2 3 3 3 4 6
7 5 3 3 3 3 3 2 1 1 1 1 2 2 2 2 3 3 4 5 6 6 4 3 3 3 3 4 4 3 2 3 2 3 4 4 6 8 10 10 10 10 10 11 11 12 12 12 13 12 12 11 9 7 7 9 9 8 7 5 4 4 1 3 4 5 5 4 4 4 3 3 2 2 2 3 4 4 3 2 1 1 2 2 2 4 7
5 4 3 2 2 1 2 1 1 1 0 1 2 2 2 2 4 4 4 5 6 5 4 4 3 4 3 2 1 1 3 2 2 5 4 4 6 7 9 10 9 10 11 11 12 13 13 13 13 12 12 12 10 8 8 10 10 9 7 6 5 3 2 1 3 3 3 4 3 3 4 4 3 1 1 2 4 5 3 1 0 1 1 1 1 5 7
3 3 3 2 2 2 1 1 1 1 1 1 2 3 2 2 4 5 5 6 5 4 4 4 2 1 1 2 3 3 2 3 4 3 1 3 5 7 8 9 9 10 11 12 12 12 12 12 12 11 11 12 11 9 8 10 11 8 7 6 5 4 4 3 3 4 4 4 3 3 3 4 3 2 1 1 2 3 2 1 1 1 0 0 2 5 8
3 3 2 1 1 1 2 3 3 2 2 2 2 3 3 3 4 4 5 5 5 4 4 3 0 2 2 4 5 5 5 5 5 4 3 4 5 6 7 9 10 11 11 11 11 11 11 11 11 10 10 11 10 9 9 10 10 7 5 5 5 5 4 4 5 5 4 4 5 3 1 2 1 1 2 2 1 1 1 1 1 1 1 1 1 3 6
1 1 1 1 1 1 3 4 3 3 4 4 4 4 4 3 5 5 5 5 5 4 4 2 1 3 4 6 6 6 7 7 6 6 5 5 5 5 7 9 10 11 11 9 8 8 8 7 7 9 10 10 10 10 10 9 8 6 5 5 5 5 4 4 5 4 4 5 6 3 5 5 1 1 2 2 1 1 1 2 1 1 1 2 3 3 5
1 1 1 2 3 3 3 4 4 4 5 5 5 5 5 4 5 6 5 5 5 4 4 3 2 3 4 6 6 7 9 8 7 7 7 7 6 6 7 9 10 11 10 8 6 6 5 5 5 8 11 11 9 8 9 9 7 5 4 5 5 5 4 4 5 5 5 5 2 2 5 2 2 2 2 2 1 1 1 1 1 1 2 3 3 4 5
1 0 1 2 2 3 3 4 4 5 6 6 6 6 5 5 6 6 6 6 5 4 4 5 4 4 4 5 7 9 10 10 9 9 9 8 7 7 8 10 11 10 8 7 6 4 5 6 5 3 9 11 8 7 9 10 9 6 4 4 5 5 4 5 5 5 5 4 1 3 2 1 2 2 1 1 1 1 1 1 0 1 2 3 3 3 4
1 1 1 2 3 3 4 4 5 5 6 7 7 6 6 6 7 7 7 6 6 5 5 6 6 5 5 6 7 9 11 11 10 10 10 10 8 8 10 12 11 7 5 6 5 4 3 3 3 2 7 9 8 6 7 8 8 7 5 5 5 5 5 5 5 5 5 4 1 1 0 1 2 2 2 1 1 1 1 1 0 1 2 2 2 2 2
3 2 2 3 5 5 5 5 6 6 7 7 7 7 7 7 8 7 7 7 6 5 5 6 6 6 7 7 7 8 8 9 10 10 10 10 9 9 11 12 8 2 1 3 4 3 2 1 2 3 2 5 5 4 3 5 7 7 6 5 6 6 5 5 5 5 4 2 3 2 1 2 2 2 3 2 2 2 3 2 2 2 2 3 2 2 2
4 4 4 5 6 6 6 6 6 7 8 8 8 8 7 7 7 7 7 8 7 6 6 7 6 7 8 8 7 7 7 6 7 8 9 9 9 9 10 9 5 2 2 2 3 4 4 5 4 4 3 0 2 2 2 2 4 7 7 7 7 7 6 5 6 6 5 3 2 2 1 2 3 3 3 3 3 3 3 4 3 3 3 3 3 3 2
4 4 5 6 6 7 7 7 7 8 8 8 8 8 7 7 7 7 7 8 7 7 7 7 6 6 8 9 8 8 8 8 7 7 8 8 8 8 9 9 4 2 3 3 3 4 4 4 5 5 3 0 1 2 2 2 4 8 10 8 7 7 6 6 6 6 5 5 4 3 2 3 3 3 4 4 4 4 5 5 4 4 4 3 3 3 2
4 5 6 6 6 7 7 7 7 8 8 8 8 7 7 7 7 8 8 8 8 8 9 8 6 7 8 9 9 9 9 8 8 8 8 9 9 8 8 7 4 3 3 3 4 5 5 4 5 7 7 5 4 4 4 4 6 9 9 7 6 6 6 6 7 7 6 6 5 4 3 4 4 4 4 4 5 5 6 5 5 4 4 3 3 3 2
4 5 6 6 6 6 7 7 7 7 7 7 7 7 7 7 8 8 9 9 8 8 8 9 8 8 8 9 9 10 9 8 8 7 7 8 8 7 5 4 4 2 2 3 4 5 6 5 4 4 6 7 8 7 6 6 7 9 8 7 7 7 7 7 8 8 7 5 5 5 4 4 4 4 5 5 6 6 6 6 5 4 4 4 3 3 2
4 4 4 5 5 6 7 7 7 7 7 8 8 7 8 9 9 8 9 9 8 8 8 8 8 8 8 9 9 8 8 8 8 6 6 6 5 2 2 1 3 3 2 3 5 7 6 3 1 2 4 8 10 10 8 8 8 8 8 8 7 7 8 8 8 8 8 6 5 6 5 4 5 5 5 5 6 7 7 6 5 5 5 4 4 3 3
4 4 4 4 5 6 6 6 7 7 8 9 8 8 8 8 8 8 8 8 8 8 8 8 7 7 7 7 7 7 7 7 7 6 6 5 4 0 1 2 4 4 4 6 7 6 3 2 4 6 7 8 10 11 10 10 10 9 8 8 8 8 9 9 9 9 9 7 6 5 5 4 4 5 5 5 7 7 7 6 6 5 5 5 4 4 4
4 4 5 5 6 6 7 7 7 8 8 8 7 7 7 7 7 7 8 8 8 8 8 8 7 7 7 6 6 7 7 7 6 5 5 5 4 3 2 3 4 4 5 5 6 5 5 7 9 9 9 9 10 11 11 11 10 9 8 8 7 8 9 9 9 9 9 8 6 5 4 4 4 5 5 6 7 7 7 7 7 6 5 5 5 4 4
4 5 5 5 6 6 7 7 7 8 8 8 7 7 6 6 6 6 7 7 7 7 7 7 7 7 6 6 6 7 6 5 5 4 4 5 4 3 3 3 2 3 3 3 4 6 8 10 10 9 8 8 9 10 10 10 10 8 8 7 7 8 9 9 8 8 9 8 7 6 5 5 6 6 6 6 7 7 8 8 8 7 6 6 5 5 5
4 5 5 5 6 6 6 6 7 7 7 6 6 6 5 5 6 5 5 5 6 6 6 6 7 7 6 6 6 6 5 4 4 4 4 4 4 4 3 2 2 2 3 2 2 4 6 8 8 6 5 4 6 8 9 9 8 7 7 7 7 7 8 7 7 8 9 8 7 7 7 7 6 6 7 7 7 7 8 8 8 8 8 7 6 6 6
4 5 5 5 5 5 5 5 6 6 6 5 5 4 4 5 5 4 4 4 5 5 5 5 4 5 5 5 5 5 4 3 4 4 4 5 5 6 6 4 4 4 3 2 3 3 5 6 6 4 3 3 5 7 7 7 6 6 6 7 7 6 6 5 6 8 9 9 8 8 8 8 7 7 7 7 7 8 8 8 8 8 9 9 7 6 6
5 6 5 4 4 4 4 4 4 5 5 4 4 4 3 4 4 4 4 4 5 4 3 3 3 3 3 3 4 5 3 2 3 3 4 5 5 5 5 5 5 5 5 4 5 4 3 3 3 3 3 4 5 5 5 6 6 6 5 5 5 5 5 4 6 7 9 9 9 8 8 8 8 8 7 8 8 8 8 9 8 8 9 10 9 8 7
5 5 4 5 4 4 3 3 4 4 3 3 4 4 4 4 4 3 2 2 4 4 3 2 4 5 5 5 5 4 2 1 2 2 2 3 3 3 4 5 6 6 6 7 6 5 3 3 3 3 3 3 4 4 4 5 6 6 5 5 5 5 4 4 5 6 7 8 9 9 9 9 9 8 8 8 8 8 8 9 9 8 8 9 10 9 8
Wind_Direction
290 290 180 167 190 195 201 246 291 310 312 335 349 333 359 347 289 291 54 97 124 108 75 55 51 47 39 31 27 24 22 23 24 30 36 34 30 28 24 22 21 18 15 12 11 8 4 2 358 355 347 280 243 232 223 213 207 200 180 168 172 169 157 152 152 150 149 149 151 150 149 151 154 153 149 147 146 142 139 139 140 142 145 154 156 146 145
296 278 236 203 218 208 205 253 339 344 321 344 14 4 360 339 295 294 86 104 94 72 53 52 53 51 47 41 40 36 30 28 28 31 35 34 31 30 26 22 21 19 18 15 14 13 10 7 2 358 357 350 312 248 211 199 206 210 186 163 156 149 141 136 137 138 138 137 140 141 142 142 141 139 138 137 138 140 138 134 132 132 138 146 150 153 152
294 272 237 218 227 213 183 75 22 1 347 8 25 14 8 351 315 321 20 112 90 68 64 63 58 57 55 47 44 42 34 31 33 35 37 36 33 31 28 26 24 22 23 21 18 17 15 13 10 2 1 4 355 338 175 174 190 195 174 156 145 138 134 131 131 132 131 129 130 130 132 131 127 128 132 132 127 127 129 128 126 129 139 144 143 141 134
261 247 225 207 206 207 155 68 26 4 2 10 28 37 27 14 357 345 336 61 80 84 88 73 63 56 51 45 43 41 38 37 39 40 40 38 36 34 31 29 28 27 27 24 22 22 20 20 20 12 9 16 8 357 75 134 141 149 146 134 123 120 124 127 127 127 127 126 126 127 130 132 131 131 132 129 122 114 113 120 124 126 134 137 124 109 106
254 306 292 241 188 208 172 62 15 353 6 5 22 48 32 17 7 351 350 52 72 113 116 88 66 54 48 46 40 35 38 41 41 42 43 41 40 38 35 33 33 33 34 31 27 27 27 28 28 22 21 29 18 357 11 120 123 124 122 117 110 103 103 109 116 122 124 123 124 128 132 134 134 132 128 129 130 122 111 111 114 116 119 122 117 109 112
247 30 333 278 214 208 141 68 13 348 22 23 21 37 26 17 9 356 18 69 80 103 98 82 76 66 57 53 44 37 39 40 42 44 43 44 45 43 41 40 38 38 39 38 35 34 34 36 37 35 33 39 35 15 17 86 108 108 106 106 105 103 100 100 108 121 126 122 119 121 123 124 125 126 126 129 133 133 131 123 115 113 114 115 114 114 125
250 106 284 265 236 150 122 79 23 4 31 27 22 54 39 23 10 7 35 69 72 75 85 88 91 84 71 59 46 39 38 38 42 46 45 44 45 44 44 44 43 43 43 44 42 38 35 36 41 43 41 44 48 37 29 55 82 90 92 92 92 96 100 100 104 114 119 118 116 117 119 120 120 122 125 125 124 127 131 130 122 115 113 113 113 113 123
280 182 204 223 123 102 118 69 20 14 21 7 0 78 50 26 12 15 35 58 65 75 94 99 103 107 94 69 45 35 34 37 44 49 51 50 49 49 50 48 47 47 47 48 47 41 36 36 40 45 44 44 51 50 43 48 62 73 79 81 81 85 89 93 97 102 106 108 108 112 117 120 120 120 120 121 124 124 121 119 117 113 109 109 108 106 109
256 245 192 118 129 109 70 34 18 18 13 357 347 76 55 30 16 12 21 59 76 87 106 115 140 154 120 71 38 26 26 34 44 51 55 55 55 56 55 54 54 52 50 51 51 48 44 41 43 48 47 44 49 53 50 49 54 61 65 67 70 73 77 82 89 95 103 107 106 108 111 111 111 113 110 108 116 124 123 117 110 105 106 109 108 106 103
271 256 144 130 168 137 46 18 13 13 351 339 323 243 68 29 12 10 23 62 85 103 120 110 180 224 147 63 28 12 17 29 41 51 56 53 53 55 54 54 55 53 51 50 49 49 47 45 47 51 52 49 48 49 48 49 52 55 55 56 60 62 66 74 81 87 98 106 108 111 113 109 109 112 108 105 107 113 115 111 104 101 106 109 108 108 108
271 268 233 185 143 88 28 2 357 353 338 306 251 226 99 21 7 16 35 66 95 93 74 39 0 303 180 90 28 353 4 32 44 50 56 54 52 54 52 51 53 53 52 50 48 48 46 44 46 49 52 52 49 47 46 48 51 51 48 50 57 60 64 72 80 84 87 95 102 107 109 108 110 111 107 107 110 108 103 102 102 103 105 105 104 103 106
250 265 234 73 72 46 4 350 348 348 336 221 218 221 44 9 2 24 35 53 91 67 37 40 29 19 82 84 15 337 353 38 55 57 59 57 53 53 50 49 51 53 52 50 48 49 47 45 44 46 50 53 48 45 45 46 47 48 47 50 58 65 69 72 75 77 76 78 85 93 98 102 104 104 101 104 110 107 99 97 104 112 113 110 110 108 105
199 134 110 93 88 27 353 342 345 357 306 203 249 358 358 351 3 35 36 39 64 57 52 68 61 53 66 58 5 350 8 36 53 58 62 61 58 55 50 46 47 49 50 50 50 50 48 48 47 44 50 52 45 39 43 45 43 44 48 53 57 62 67 69 71 74 73 70 70 74 81 87 87 86 84 84 87 86 83 86 96 110 112 102 100 95 65
247 138 112 107 111 36 351 331 333 7 336 218 40 33 26 17 27 48 46 50 70 74 74 79 79 77 70 49 32 28 27 35 50 56 59 60 59 57 51 45 44 45 46 46 47 47 46 48 48 44 48 52 47 40 43 46 44 43 47 52 55 57 60 63 66 69 71 68 65 61 65 73 75 72 69 69 71 72 76 82 83 84 88 87 81 61 43
333 105 90 84 99 16 347 331 339 21 15 33 43 34 48 47 48 60 62 68 85 90 89 87 82 78 75 72 69 57 42 53 65 66 64 60 58 56 51 46 43 43 44 43 44 45 44 46 48 46 48 52 52 48 46 46 48 50 50 53 57 58 59 60 60 62 64 64 62 56 56 65 70 68 64 63 67 69 72 81 91 92 93 103 108 94 76
6 74 66 40 348 344 355 11 57 48 43 61 51 42 60 63 64 74 77 80 87 90 94 92 82 77 81 82 77 65 52 59 69 71 69 66 63 59 54 49 45 44 45 44 43 44 43 43 46 47 49 53 56 56 53 48 48 52 52 53 57 58 59 60 59 59 60 60 59 56 54 58 65 68 68 69 70 70 66 68 83 91 83 83 100 109 118
56 76 87 89 97 54 45 59 70 66 68 73 68 69 75 74 79 86 89 92 92 90 92 89 79 75 75 72 68 63 56 59 66 70 71 70 69 67 64 59 52 48 47 44 43 44 42 41 42 43 44 47 50 53 55 54 54 56 54 54 57 57 58 59 59 61 63 62 60 57 55 57 60 58 58 65 69 69 67 65 66 74 77 72 67 66 75
89 84 91 94 86 80 76 77 76 74 75 76 78 81 81 81 89 94 94 96 94 89 87 87 82 78 75 73 70 64 56 52 55 59 62 62 60 61 64 63 56 52 50 47 43 42 40 39 40 41 43 44 43 44 46 48 51 54 55 58 61 61 61 60 57 56 58 58 58 59 59 62 61 55 52 57 61 60 62 64 64 65 67 73 84 93 90
102 89 93 94 88 85 84 84 82 80 79 79 82 86 90 95 98 98 97 100 99 95 93 93 93 92 89 86 84 80 79 75 64 58 58 55 50 48 47 43 42 46 49 48 44 41 38 36 34 34 37 41 42 41 42 44 45 46 48 52 55 57 59 60 59 57 55 53 55 56 55 57 60 59 57 56 56 51 42 35 42 61 67 68 72 79 90
95 102 102 93 85 84 83 82 83 82 82 85 87 91 98 104 106 106 107 108 107 104 103 104 105 105 104 100 94 85 81 78 71 65 61 55 49 44 37 30 30 34 36 37 39 38 33 31 30 30 30 30 33 35 38 41 44 46 46 46 47 48 50 51 52 52 48 48 55 58 57 56 51 47 44 47 53 49 35 21 19 27 37 50 51 39 34
103 109 110 101 92 86 78 77 82 82 84 90 94 97 102 105 108 110 113 115 115 115 115 112 109 106 100 94 89 81 73 70 66 62 58 54 49 44 38 34 33 31 27 26 30 29 23 19 21 22 21 23 26 26 28 32 36 36 38 43 45 45 43 42 42 42 42 43 46 55 67 71 65 55 47 46 51 48 35 29 34 31 28 36 36 23 20
108 108 110 106 100 94 86 84 86 87 87 89 89 94 100 104 106 110 112 115 115 114 112 110 107 103 102 99 93 83 75 69 62 55 50 49 43 36 34 34 32 28 23 19 19 19 15 12 13 10 8 12 18 18 20 25 26 24 23 30 40 42 39 33 26 26 35 39 35 36 49 66 84 88 77 62 56 53 41 32 36 41 38 39 39 33 32
106 108 105 98 97 99 98 96 94 93 93 91 86 85 87 93 102 108 113 116 117 115 115 114 108 102 108 117 111 96 86 79 70 64 64 56 43 33 27 22 19 17 11 3 5 6 2 3 8 5 358 359 3 6 12 17 18 16 13 15 25 34 37 31 19 15 24 30 26 27 30 25 42 109 112 89 67 58 53 45 40 39 38 42 50 53 49
107 108 103 101 103 104 102 96 87 79 77 82 87 91 92 96 104 107 108 113 116 116 121 122 111 101 103 106 94 84 86 81 61 51 57 54 32 18 20 22 12 2 353 351 356 354 348 354 0 354 346 348 351 349 355 6 11 10 10 12 15 16 21 27 27 25 28 27 21 19 21 20 13 22 127 122 92 67 57 51 49 48 43 38 36 29 23
104 103 103 105 105 104 103 95 81 70 68 70 74 75 75 76 87 98 102 109 118 121 127 130 121 107 95 88 66 43 55 68 49 26 32 50 21 357 5 11 356 343 341 342 341 337 338 348 350 340 334 340 343 335 337 351 3 7 8 14 16 12 6 2 5 19 23 22 22 17 15 20 16 5 18 91 101 95 87 68 55 52 47 40 34 21 8
101 103 107 107 103 103 107 102 93 90 87 83 83 81 72 54 29 60 82 86 95 107 117 130 131 122 111 111 74 26 40 60 47 348 350 19 12 353 356 356 342 337 337 331 328 335 346 340 328 320 328 339 337 323 320 332 349 358 1 6 17 24 10 354 345 357 12 10 13 16 12 13 19 18 19 21 26 95 135 142 145 127 91 59 42 31 15
107 114 117 114 109 111 113 101 94 97 97 92 92 93 91 80 54 70 78 74 72 78 80 79 80 82 88 85 47 38 57 74 356 321 343 359 354 345 347 343 333 331 328 319 318 325 334 320 310 312 327 338 330 310 301 308 326 336 345 355 6 27 18 357 346 355 7 4 5 10 9 8 13 17 25 24 7 6 57 150 199 181 159 140 63 37 33
108 114 118 113 104 101 103 104 104 104 100 92 86 87 93 93 86 82 81 73 67 71 77 77 54 0 62 68 331 276 176 258 307 327 343 346 341 338 338 333 326 322 318 312 310 307 303 303 304 306 313 322 319 301 286 282 298 310 324 340 337 335 345 344 342 351 358 357 360 3 1 3 14 15 12 12 7 1 12 359 328 322 148 141 93 56 63
100 93 94 97 97 98 101 108 112 107 97 92 91 91 93 94 94 87 73 57 46 18 28 71 340 307 309 299 294 296 302 312 319 328 336 341 338 332 330 328 322 315 307 302 302 301 299 297 295 295 299 305 305 288 270 264 276 290 302 317 328 345 354 347 335 340 344 346 359 7 359 339 353 359 344 357 6 351 350 2 336 331 348 60 28 168 103
99 95 94 101 113 120 118 117 116 114 115 121 121 91 30 346 341 18 26 346 288 286 283 260 266 281 281 276 281 291 301 310 318 326 335 346 345 333 328 323 317 312 307 304 308 311 309 300 291 288 291 293 290 274 258 254 258 265 274 282 297 345 355 346 329 323 321 312 313 317 277 277 324 346 332 341 356 327 317 18 10 324 327 347 344 330 342
106 103 102 108 119 121 117 116 123 126 120 56 317 299 293 302 315 331 329 304 296 301 299 281 279 287 288 283 283 282 293 322 334 332 335 345 342 333 330 323 316 313 312 311 311 311 306 297 290 285 284 283 278 266 253 250 250 252 257 253 232 241 352 352 321 307 318 327 304 261 249 262 321 339 315 323 335 313 306 354 25 337 327 327 337 355 355
123 125 128 123 120 114 109 112 139 141 120 328 300 293 309 328 331 336 333 317 310 312 309 290 274 265 257 260 273 294 18 46 14 306 307 319 323 327 331 325 315 310 310 309 309 307 301 293 286 281 276 271 266 258 249 244 242 243 249 245 214 186 123 17 324 294 297 310 300 280 274 283 289 279 286 322 333 324 326 354 0 320 323 322 346 18 5
144 147 141 117 97 85 82 72 355 326 20 336 301 301 325 337 328 327 325 313 307 311 309 290 263 253 250 246 233 87 77 77 251 251 262 293 316 333 334 321 307 303 306 308 309 308 304 297 289 280 269 260 255 249 241 237 234 237 245 249 241 222 213 287 311 290 266 267 286 310 313 300 294 311 27 8 332 325 339 7 301 228 326 339 78 51 22
71 79 75 63 32 2 3 357 317 299 274 259 273 283 299 317 321 326 326 317 313 312 297 279 259 224 169 151 154 161 180 240 271 276 266 293 319 337 331 311 298 296 300 304 306 303 300 296 289 279 265 254 250 245 237 231 229 235 245 248 257 269 259 247 266 283 285 284 279 266 266 276 291 316 354 319 315 323 342 355 220 180 100 102 118 80 47
79 85 78 40 0 339 314 305 307 309 299 286 280 286 300 314 319 322 321 316 313 307 288 275 166 116 166 189 196 209 225 249 282 307 302 294 316 334 325 310 304 301 301 306 309 305 299 292 282 271 262 253 244 239 238 230 224 231 249 247 247 260 268 275 285 294 309 305 282 260 285 2 3 309 286 287 301 299 238 193 197 162 110 54 77 73 51
128 127 147 275 324 322 291 284 285 285 289 293 291 287 291 305 308 306 305 305 306 303 293 275 160 166 210 220 221 233 245 257 275 287 280 279 300 319 315 311 308 302 302 313 321 316 307 294 269 257 259 256 242 232 230 225 220 232 253 253 250 254 261 279 287 289 291 283 277 318 23 25 40 219 275 294 289 244 189 175 166 120 79 54 42 44 42
48 0 350 334 333 325 298 291 291 285 281 280 283 288 296 301 296 294 298 303 303 298 290 275 233 209 224 238 246 253 256 258 262 262 259 267 284 298 303 304 299 292 299 321 338 333 328 322 289 253 241 239 237 228 221 219 222 238 255 259 259 256 258 278 287 285 281 272 257 60 41 16 206 204 279 292 252 160 172 175 142 60 61 56 45 41 44
103 33 356 331 316 304 294 294 294 289 283 280 280 287 295 296 292 293 296 297 292 284 276 272 257 228 223 240 255 259 260 260 258 251 247 254 267 279 291 298 297 298 314 339 345 337 345 350 337 256 214 216 225 222 216 222 230 235 248 266 265 255 262 284 288 285 292 302 5 80 53 286 220 223 290 292 192 159 166 166 69 66 77 71 58 54 56
212 232 295 309 297 294 297 294 286 280 281 283 284 286 284 283 285 289 292 291 287 280 274 272 267 254 247 247 251 254 254 252 252 251 247 246 250 264 280 288 289 295 324 340 331 328 356 5 351 244 206 211 213 198 198 221 234 234 240 258 258 250 262 280 284 286 293 297 269 145 236 274 262 263 273 264 214 188 165 143 158 141 113 96 87 89 87
284 287 294 295 295 296 297 294 290 288 287 287 288 288 284 280 282 286 288 288 285 277 270 269 269 270 267 262 264 267 255 234 227 233 236 236 241 259 278 288 290 295 32 347 327 318 298 286 314 314 252 210 192 172 183 223 238 239 242 244 241 241 250 262 270 278 277 231 160 145 195 250 247 251 250 240 218 196 183 180 185 174 147 134 136 133 124
291 295 295 294 295 296 296 294 293 292 290 288 286 283 277 277 283 290 294 295 291 285 280 275 272 273 275 275 280 287 280 255 232 225 224 229 241 258 279 298 315 64 80 5 326 298 266 250 264 302 321 349 157 167 171 201 239 248 248 242 239 240 244 251 262 272 271 248 211 185 192 213 221 228 233 228 209 194 196 198 191 182 173 165 158 154 150
290 298 298 294 290 291 293 293 290 287 285 285 284 279 272 271 274 279 287 293 293 289 285 279 269 272 283 285 282 281 278 274 266 247 233 238 253 270 293 309 322 92 81 4 312 266 247 235 231 241 259 299 143 193 181 184 248 256 254 251 247 242 239 244 252 257 261 262 254 220 180 201 226 227 224 221 208 199 204 209 201 193 188 180 171 168 168
298 298 292 291 295 299 298 294 292 291 291 289 287 284 279 275 273 274 278 282 281 279 279 276 264 258 263 267 270 272 270 267 266 259 251 251 253 258 277 303 330 73 64 354 292 256 252 250 229 215 209 210 225 228 219 234 261 264 260 257 251 239 234 242 249 249 250 253 249 226 196 203 222 227 225 221 211 202 203 208 207 200 192 185 180 177 177
291 288 289 297 305 302 296 291 293 298 299 296 293 290 284 279 276 275 274 275 273 272 275 277 275 272 268 264 264 265 263 261 258 249 245 253 254 241 238 275 315 346 351 322 294 278 276 271 240 210 216 234 244 239 229 239 259 264 262 259 250 239 234 237 242 247 250 251 252 249 228 203 205 221 224 215 206 202 202 204 203 201 199 195 186 182 191
280 282 294 304 300 293 294 299 303 304 302 297 293 290 286 282 281 278 277 276 275 274 273 273 276 278 278 272 265 261 263 272 275 266 256 267 276 242 182 248 300 297 286 291 294 291 291 295 292 270 266 263 257 245 237 244 256 261 263 262 254 243 239 237 236 241 245 242 244 255 250 222 207 213 216 209 205 202 200 199 199 201 206 206 196 193 205
278 275 273 273 278 288 300 307 305 302 297 294 293 295 294 289 285 281 278 277 275 273 273 273 275 276 275 271 265 257 253 258 265 264 263 269 276 267 73 340 312 291 276 283 289 293 307 323 301 287 280 270 255 241 236 245 255 259 259 257 249 242 242 241 237 238 241 237 236 247 261 254 230 218 212 208 206 201 198 200 205 206 210 212 206 204 211
273 277 280 286 294 303 308 307 300 291 284 282 289 301 304 297 288 286 286 284 281 277 274 271 269 266 261 258 260 262 261 261 263 260 252 252 255 245 237 266 285 287 282 277 274 278 289 293 289 286 283 270 251 236 233 244 256 260 261 258 250 243 243 242 237 235 236 237 236 245 270 279 259 236 219 213 211 206 202 205 208 209 211 211 207 209 217
269 282 291 297 299 299 302 299 290 283 282 289 300 309 307 299 293 293 292 288 281 275 270 265 263 260 254 249 254 261 265 272 278 273 257 253 257 247 217 207 239 293 299 275 254 263 282 291 291 289 284 266 242 232 236 247 254 258 262 263 256 249 245 243 238 234 233 231 232 239 248 253 247 234 223 217 216 213 211 210 211 213 215 213 211 215 221
272 281 282 279 280 290 300 296 286 284 294 307 310 307 302 297 294 293 292 287 279 271 264 257 253 250 245 241 243 247 251 258 267 271 272 270 269 267 261 244 232 250 272 268 239 258 290 303 302 292 280 254 228 227 238 248 251 255 262 265 262 256 251 243 233 230 233 235 235 238 241 243 241 236 230 224 220 217 215 213 214 216 215 212 213 220 225
273 278 279 282 292 308 314 308 302 309 321 322 313 304 300 295 295 303 315 314 299 285 276 273 269 260 247 238 235 232 230 241 260 272 278 278 272 270 271 260 219 196 206 243 253 261 291 309 313 300 264 237 232 237 248 255 255 254 257 257 254 252 250 237 222 222 230 237 241 242 243 243 242 240 237 232 228 222 216 213 217 222 219 214 215 221 226
271 279 291 303 307 308 310 310 313 319 321 313 305 304 301 295 299 320 350 349 325 302 285 289 297 288 270 264 267 260 247 243 260 269 271 272 271 267 259 245 215 193 203 240 261 257 245 265 290 294 262 237 237 246 254 255 253 250 245 240 237 237 240 238 232 229 232 239 245 248 247 244 241 239 236 232 230 226 218 214 218 224 221 219 222 226 228
265 281 302 302 288 278 283 300 309 310 309 309 314 317 313 303 304 318 14 2 319 299 292 322 337 334 325 311 292 272 241 230 263 270 277 295 294 269 236 226 221 213 216 238 263 271 243 220 240 261 252 242 250 256 247 240 242 240 229 222 229 238 244 248 247 242 240 241 244 244 242 239 238 237 232 226 224 225 223 221 221 220 217 217 221 225 226